Weather in Belovskiy

Russia / Altai Krai     52°53′39″N   84°38′21″E
temp.,
°C
wind,
m/s
gust,
m/s
humid.,
%
clouds,
%
prec.,
mm/h
press.,
hPa
HPBL,
m
27 january, thu
thu2701:00−11ssw399599 0.7 1031375
04:00−11sw41095100 0.3 1032622
07:00−12wsw4994100 0.6 1034608
10:00−13sw3995100 0.2 1036529
13:00−12wsw4789100 0.3 1036650
16:00−11sw4792100 0.1 1037611
19:00−15ssw2299100 0.3 103820
22:00−14ssw249799 0.1 103890
28 january, fri
fri2801:00−16s239893 0.2 103848
04:00−16s2298100 0.1 103724
07:00−18sse2210085 0.2 103712
10:00−20se2210098 0.0 103734
13:00−13se239472 0.0 1036137
16:00−12se129410 0.0 103566
19:00−19ese2210055 0.0 103510
22:00−20e2210045 0.0 103512
29 january, sat
sat2901:00−21e2210061 0.0 103411
04:00−21ese2210069 0.0 103410
07:00−21ese2210093 0.0 103411
10:00−21e2210045 0.0 103431
13:00−12ese238859 0.0 1033135
16:00−11ese22905 0.0 103299
19:00−18e22955 0.0 103318
22:00−20e2295100 0.0 103314
30 january, sun
sun3001:00−17ese129658 0.0 10329
04:00−16ese2297100 0.0 103233
07:00−15ese2293100 0.0 103136
10:00−14se2390100 0.0 103156
13:00−9se2381100 0.0 1030114
16:00−8ssw1181100 0.0 102993
19:00−9e1192100 0.0 102920
22:00−12e1192100 0.0 103010
31 january, mon
mon3101:00−13e118995 0.0 10309
04:00−13ese2288100 0.0 103012
07:00−13ese228892 0.0 103015
10:00−13ese228757 0.0 103131
13:00−8se128211 0.0 103094
16:00−7sse11895 0.0 103027
19:00−14se119496 0.0 10329
22:00−15sse119472 0.0 10339